FW8702 Weather Reports


Display with metric or nautical units.
time (UTC)temp
F
wind
direction
speed
MPH
gust
MPH
rain 1hr
in
rain 24hr
in
rain mn
in
humidity
%
barometer
mb
20260831060105 71 279 0.0 4.0 0.00 0.00 0.00 77 1016.4
20260831054531 70 273 2.0 3.0 0.00 0.00 0.00 78 1016.5
20260831053018 69 45 0.0 3.0 0.00 0.00 0.00 80 1016.5
20260831051503 69 244 1.0 3.0 0.00 0.00 0.00 78 1016.5
20260831050001 71 305 2.0 10.0 0.00 0.00 0.00 75 1016.4
20260831044536 71 256 0.0 6.0 0.00 0.00 0.00 74 1016.3
20260831043101 71 326 4.0 11.0 0.00 0.00 0.00 75 1016.2
20260831041513 70 8 3.0 5.0 0.00 0.00 0.00 78 1016.2
20260831040036 70 88 0.0 5.0 0.00 0.00 0.00 81 1016.2
20260831034510 67 300 0.0 0.0 0.00 0.00 0.00 81 1016.5
20260831033052 69 293 1.0 4.0 0.00 0.00 0.00 79 1016.6
20260831031552 70 231 0.0 6.0 0.00 0.00 0.00 77 1016.4
20260831030026 71 319 2.0 6.0 0.00 0.00 0.00 76 1016.3
20260831024509 71 260 1.0 4.0 0.00 0.00 0.00 76 1016.4
20260831023047 70 40 2.0 5.0 0.00 0.00 0.00 79 1016.4
20260831021521 70 285 1.0 6.0 0.00 0.00 0.00 80 1016.6
20260831020029 68 257 1.0 3.0 0.00 0.00 0.00 82 1016.5
20260831014539 68 279 1.0 4.0 0.00 0.00 0.00 82 1016.5
20260831013056 69 275 0.0 2.0 0.00 0.00 0.00 81 1016.7
20260831011540 70 79 0.0 2.0 0.00 0.00 0.00 80 1016.5
20260831010003 71 341 0.0 2.0 0.00 0.00 0.00 79 1016.8
20260831004557 71 325 4.0 10.0 0.00 0.00 0.00 78 1016.5
20260831003035 70 284 0.0 2.0 0.00 0.00 0.00 81 1016.6
20260831001523 70 352 0.0 4.0 0.00 0.00 0.00 81 1016.6
20260831000035 71 26 0.0 1.0 0.00 0.00 0.00 81 1016.7
20260830234515 70 297 1.0 4.0 0.00 0.00 0.00 82 1016.8
20260830233040 69 354 0.0 2.0 0.00 0.00 0.00 82 1016.8
20260830231605 70 285 1.0 3.0 0.00 0.00 0.00 82 1016.9
20260830230021 70 311 0.0 1.0 0.00 0.00 0.00 82 1016.8
20260830224537 70 344 0.0 2.0 0.00 0.00 0.00 82 1016.8
20260830223027 70 338 0.0 2.0 0.00 0.00 0.00 82 1016.8
20260830221559 69 346 0.0 1.0 0.00 0.00 0.00 82 1017.0
20260830220037 69 285 0.0 1.0 0.00 0.00 0.00 82 1016.9
20260830214505 68 283 0.0 1.0 0.00 0.00 0.00 82 1016.8
20260830213013 68 283 0.0 0.0 0.00 0.00 0.00 82 1016.7
20260830211559 68 283 0.0 1.0 0.00 0.00 0.00 82 1016.6
20260830210056 68 288 0.0 0.0 0.00 0.00 0.00 82 1016.5
20260830204542 69 288 0.0 0.0 0.00 0.00 0.00 81 1016.5
20260830203044 69 296 0.0 0.0 0.00 0.00 0.00 81 1016.4
20260830201526 70 296 0.0 2.0 0.00 0.00 0.00 80 1016.4
20260830200041 70 297 0.0 0.0 0.00 0.00 0.00 80 1016.4
20260830194540 71 297 0.0 1.0 0.00 0.00 0.00 79 1016.4
20260830193056 71 301 0.0 0.0 0.00 0.00 0.00 78 1016.3
20260830191505 72 305 0.0 1.0 0.00 0.00 0.00 77 1016.1
20260830190056 72 305 0.0 1.0 0.00 0.00 0.00 77 1016.0
20260830184500 72 285 0.0 2.0 0.00 0.00 0.00 77 1016.0
20260830183051 73 280 0.0 0.0 0.00 0.00 0.00 76 1015.6
20260830181511 74 280 0.0 0.0 0.00 0.00 0.00 75 1015.6
20260830180052 75 283 0.0 1.0 0.00 0.00 0.00 72 1015.4
20260830174524 78 280 1.0 2.0 0.00 0.00 0.00 69 1015.3
20260830173109 82 150 0.0 0.0 0.00 0.00 0.00 58 1015.1
20260830171605 83 150 0.0 0.0 0.00 0.00 0.00 52 1015.1
20260830170018 84 242 0.0 0.0 0.00 0.00 0.00 50 1015.0
20260830164554 85 242 1.0 2.0 0.00 0.00 0.00 47 1015.1
20260830163028 85 218 1.0 4.0 0.00 0.00 0.00 46 1015.2
20260830161549 86 212 0.0 1.0 0.00 0.00 0.00 48 1015.2
20260830160021 86 237 0.0 5.0 0.00 0.00 0.00 49 1015.3
20260830154603 86 219 0.0 4.0 0.00 0.00 0.00 49 1015.3
20260830153033 85 225 0.0 5.0 0.00 0.00 0.00 46 1015.3
20260830151523 85 202 1.0 6.0 0.00 0.00 0.00 50 1015.4
20260830150048 85 282 0.0 6.0 0.00 0.00 0.00 51 1015.5
20260830144608 85 223 3.0 7.0 0.00 0.00 0.00 51 1015.6
20260830143026 85 215 2.0 8.0 0.00 0.00 0.00 51 1015.6
20260830141520 84 277 1.0 8.0 0.00 0.00 0.00 54 1015.7
20260830140045 85 262 2.0 5.0 0.00 0.00 0.00 53 1015.8
20260830134556 86 167 0.0 4.0 0.00 0.00 0.00 50 1016.1
20260830133011 84 249 2.0 5.0 0.00 0.00 0.00 54 1016.1
20260830131544 84 108 1.0 8.0 0.00 0.00 0.00 54 1016.1
20260830130039 84 232 0.0 8.0 0.00 0.00 0.00 53 1016.4
20260830124536 84 232 3.0 9.0 0.00 0.00 0.00 52 1016.5
20260830123001 83 197 2.0 5.0 0.00 0.00 0.00 55 1016.5
20260830121506 84 219 1.0 6.0 0.00 0.00 0.00 59 1016.8
20260830120056 83 202 2.0 7.0 0.00 0.00 0.00 58 1016.7
20260830114505 82 123 1.0 6.0 0.00 0.00 0.00 59 1016.8
20260830113050 82 228 1.0 8.0 0.00 0.00 0.00 59 1016.8
20260830111546 83 237 0.0 6.0 0.00 0.00 0.00 59 1016.8
20260830110105 82 128 1.0 5.0 0.00 0.00 0.00 58 1016.9
20260830104609 81 173 3.0 6.0 0.00 0.00 0.00 57 1017.1
20260830103105 80 128 0.0 5.0 0.00 0.00 0.00 62 1017.3
20260830101501 79 317 0.0 6.0 0.00 0.00 0.00 62 1017.6
20260830100046 80 233 1.0 4.0 0.00 0.00 0.00 59 1017.7
20260830094512 79 146 0.0 4.0 0.00 0.00 0.00 60 1017.7
20260830093050 78 229 0.0 4.0 0.00 0.00 0.00 62 1017.7
20260830091559 77 352 1.0 3.0 0.00 0.00 0.00 63 1017.7
20260830090043 76 253 1.0 4.0 0.00 0.00 0.00 65 1017.9
20260830084505 77 265 2.0 4.0 0.00 0.00 0.00 64 1017.9
20260830083026 76 268 0.0 4.0 0.00 0.00 0.00 67 1017.9
20260830081505 74 287 1.0 4.0 0.00 0.00 0.00 67 1017.8
20260830080016 74 284 3.0 6.0 0.00 0.00 0.00 67 1017.9
20260830074528 74 277 0.0 5.0 0.00 0.00 0.00 67 1017.7
20260830073033 73 293 2.0 4.0 0.00 0.00 0.00 68 1017.9
20260830071619 73 337 0.0 2.0 0.00 0.00 0.00 71 1017.8
20260830070006 71 352 1.0 3.0 0.00 0.00 0.00 75 1017.7
20260830064525 70 309 0.0 2.0 0.00 0.00 0.00 77 1017.7
20260830063029 69 296 0.0 2.0 0.00 0.00 0.00 80 1017.7
20260830061602 68 280 0.0 3.0 0.00 0.00 0.00 80 1017.7